Tracking 22879 objects as of 22-Apr-2021
HD Live streaming from Space Station
objects crossing your sky now

GUARANISAT-1 (BIRDS-4)

Track GUARANISAT-1 (BIRDS-4) now!
10-day predictions
GUARANISAT-1 (BIRDS-4) is classified as:


NORAD ID: 47931
Int'l Code: 1998-067SH
Perigee: 420.9 km
Apogee: 424.1 km
Inclination: 51.6 °
Period: 92.9 minutes
Semi major axis: 6793 km
RCS: Unknown
Launch date: November 20, 1998
Source: (TBD)
Launch site: TYURATAM MISSILE AND SPACE COMPLEX (TTMTR)

Uplink (MHz): 145.825
Downlink (MHz): 145.825
Beacon (MHz): 437.375
Mode: 4k8FSK APRS CW
Call sign: JG6YMZ
Status: Active

aabbcc
Your satellite tracking list
Your tracking list is empty




NASA's NSSDC Master Catalog

Two Line Element Set (TLE):
1 47931U 98067SH  21111.41157807  .00013137  00000-0  23392-3 0  9990
2 47931  51.6426 263.2289 0002338 176.1126 183.9882 15.50466915  5929
Source of the keplerian elements: Caltech